Time[GMT],current_speed[cm/s](2m),current_direction[angular_degrees](2m),temperature[C](2m),current_u[cm/s](2m),current_v[cm/s](2m),percent_oxygen_saturation[ml/l](2m)
2018-07-10 20:00,2.93,326.1,17.10,-1.64,2.43,114.26
2018-07-10 21:00,14.96,334.9,17.41,-6.35,13.55,114.99
2018-07-10 22:00,18.48,8.3,16.12,2.65,18.29,114.99
2018-07-10 23:00,14.37,49.0,16.15,10.85,9.42,115.43
2018-07-11 00:00,17.01,74.0,16.40,16.35,4.69,115.58
2018-07-11 01:00,26.40,80.7,17.00,26.05,4.27,115.28
2018-07-11 02:00,38.42,100.4,17.63,37.79,-6.92,115.43
2018-07-11 03:00,48.10,118.3,16.94,42.35,-22.81,114.26
2018-07-11 04:00,47.51,129.2,17.54,36.82,-30.04,114.70
2018-07-11 05:00,39.30,150.7,17.57,19.26,-34.26,114.55
2018-07-11 06:00,27.28,159.1,17.35,9.73,-25.48,114.40
2018-07-11 07:00,29.04,207.3,17.03,-13.30,-25.81,114.26
2018-07-11 08:00,28.74,275.8,16.68,-28.59,2.92,113.09
2018-07-11 09:00,32.85,290.6,16.78,-30.75,11.56,113.38
2018-07-11 10:00,22.58,283.9,16.91,-21.92,5.43,112.65
2018-07-11 11:00,20.53,291.3,16.97,-19.13,7.46,112.35
2018-07-11 12:00,17.89,289.9,17.16,-16.82,6.09,112.21
2018-07-11 13:00,22.00,236.4,17.60,-18.33,-12.16,111.91
2018-07-11 14:00,11.44,216.1,17.67,-6.73,-9.25,112.50
2018-07-11 15:00,12.91,235.0,17.86,-10.58,-7.39,112.79
2018-07-11 17:00,9.97,199.5,17.86,-3.33,-9.40,113.38
2018-07-11 18:00,16.13,170.7,17.76,2.61,-15.92,113.82
2018-07-11 19:00,23.17,240.0,17.67,-20.06,-11.60,114.40
2018-07-11 20:00,34.02,263.5,17.79,-33.81,-3.84,113.82
2018-07-11 21:00,37.84,287.8,18.17,-36.03,11.56,113.53
2018-07-11 22:00,26.69,296.2,17.82,-23.94,11.79,114.84
2018-07-11 23:00,26.10,314.5,17.82,-18.62,18.30,114.99
2018-07-12 00:00,12.61,317.3,17.63,-8.55,9.27,115.43
2018-07-12 01:00,2.93,96.2,17.51,2.92,-0.31,114.84
2018-07-12 02:00,17.01,112.0,17.48,15.77,-6.37,114.70
2018-07-12 03:00,27.28,121.8,17.51,23.18,-14.38,114.99
2018-07-12 04:00,31.09,133.8,15.93,22.45,-21.51,115.72
2018-07-12 05:00,37.84,140.1,17.38,24.26,-29.03,113.82
2018-07-12 06:00,36.08,147.8,16.53,19.20,-30.54,114.40
2018-07-12 07:00,32.26,162.3,16.78,9.83,-30.73,114.26
2018-07-12 08:00,29.92,180.9,17.19,-0.47,-29.91,113.67
2018-07-12 09:00,32.26,198.1,16.62,-10.04,-30.66,112.79
2018-07-12 10:00,30.80,236.1,16.72,-25.56,-17.18,112.94
2018-07-12 11:00,26.40,247.0,17.16,-24.30,-10.32,111.91
2018-07-12 12:00,26.69,253.3,17.29,-25.57,-7.66,112.06
2018-07-12 13:00,17.89,249.1,17.32,-16.71,-6.38,111.91
2018-07-12 14:00,22.29,218.9,17.41,-13.99,-17.36,112.50
2018-07-12 15:00,24.05,243.5,17.63,-21.52,-10.74,113.09
2018-07-12 16:00,20.82,232.6,17.86,-16.54,-12.65,113.82
2018-07-12 17:00,21.12,241.0,18.05,-18.47,-10.23,114.40
2018-07-12 18:00,26.69,260.0,18.11,-26.29,-4.63,114.40
2018-07-12 19:00,13.79,274.4,17.79,-13.74,1.06,114.84
2018-07-12 20:00,21.12,286.4,17.82,-20.26,5.95,114.99
2018-07-12 21:00,17.60,288.8,17.57,-16.66,5.68,115.58
2018-07-12 22:00,14.37,292.7,17.38,-13.26,5.55,116.02
2018-07-12 23:00,28.16,345.1,17.82,-7.26,27.20,116.02
2018-07-13 00:00,22.00,21.6,17.89,8.11,20.45,116.45
2018-07-13 01:00,20.82,81.4,17.60,20.59,3.12,116.02
2018-07-13 02:00,23.76,118.3,17.51,20.92,-11.27,116.02
2018-07-13 03:00,35.78,134.8,17.70,25.37,-25.23,115.28
2018-07-13 04:00,38.42,128.2,17.60,30.21,-23.74,115.43
2018-07-13 05:00,34.61,145.4,17.41,19.66,-28.48,114.99
2018-07-13 06:00,36.66,141.2,17.48,22.99,-28.56,114.84
2018-07-13 07:00,32.26,164.0,17.41,8.88,-31.02,114.40
2018-07-13 08:00,24.93,171.4,17.41,3.73,-24.65,114.11
2018-07-13 09:00,17.89,211.1,17.35,-9.25,-15.31,113.67
2018-07-13 10:00,24.05,244.9,17.41,-21.78,-10.21,113.09
2018-07-13 11:00,21.70,249.1,17.29,-20.28,-7.74,112.94
2018-07-13 12:00,14.37,290.6,17.44,-13.45,5.06,113.82
2018-07-13 13:00,33.44,330.3,17.70,-16.55,29.05,114.40
2018-07-13 14:00,11.44,358.8,17.76,-0.25,11.44,114.99
2018-07-13 15:00,8.51,97.9,17.67,8.42,-1.17,115.28
2018-07-13 16:00,20.24,97.9,17.79,20.04,-2.79,116.02
2018-07-13 17:00,23.46,107.8,17.86,22.35,-7.16,115.72
2018-07-13 18:00,18.77,105.3,17.92,18.11,-4.95,115.72
2018-07-13 19:00,20.53,119.7,17.95,17.83,-10.18,115.43
2018-07-13 20:00,12.03,133.1,18.01,8.78,-8.21,115.43
2018-07-13 21:00,8.80,238.9,18.05,-7.54,-4.54,115.28
2018-07-13 22:00,21.12,262.1,17.98,-20.92,-2.90,115.28
2018-07-13 23:00,18.48,304.0,18.01,-15.33,10.32,116.31
2018-07-14 00:00,17.60,331.0,18.05,-8.52,15.40,116.75
2018-07-14 01:00,19.65,318.7,18.05,-12.96,14.77,116.75
2018-07-14 02:00,5.28,315.9,18.05,-3.67,3.79,116.60
2018-07-14 03:00,8.21,103.2,17.95,8.00,-1.87,116.45
2018-07-14 04:00,14.08,129.9,17.86,10.80,-9.03,115.72
2018-07-14 05:00,16.13,128.9,17.76,12.56,-10.12,115.14
2018-07-14 06:00,26.10,133.8,17.67,18.85,-18.06,114.26
2018-07-14 07:00,22.29,148.2,17.54,11.75,-18.94,113.38
2018-07-14 08:00,27.28,142.2,17.63,16.71,-21.56,113.23
2018-07-14 09:00,18.77,152.1,17.63,8.79,-16.58,113.09
2018-07-14 10:00,15.54,213.6,17.57,-8.60,-12.95,112.94
2018-07-14 12:00,20.53,241.0,17.57,-17.96,-9.95,113.09
2018-07-14 13:00,12.91,262.5,17.67,-12.79,-1.69,113.53
2018-07-14 14:00,9.09,255.1,17.60,-8.79,-2.34,114.11
2018-07-14 15:00,14.66,340.5,18.20,-4.89,13.83,115.14
2018-07-14 16:00,2.64,82.1,18.14,2.61,0.36,115.43
2018-07-14 17:00,10.85,39.9,18.49,6.96,8.32,115.87
2018-07-14 18:00,18.48,100.0,18.24,18.20,-3.22,116.16
2018-07-14 19:00,17.30,125.0,18.20,14.18,-9.92,116.02
2018-07-14 20:00,11.15,81.4,18.14,11.02,1.67,115.43
2018-07-14 21:00,17.01,270.6,18.59,-17.01,0.16,115.58
2018-07-14 22:00,9.09,287.1,18.36,-8.69,2.67,115.87
2018-07-14 23:00,17.01,280.0,18.14,-16.75,2.97,116.02
2018-07-15 00:00,20.53,292.0,18.17,-19.04,7.69,116.02
2018-07-15 01:00,14.96,306.4,18.24,-12.04,8.88,115.72
2018-07-15 02:00,15.54,327.2,18.49,-8.43,13.06,114.99
2018-07-15 03:00,9.09,339.5,18.46,-3.19,8.51,114.40
2018-07-15 04:00,6.45,113.4,18.40,5.92,-2.56,114.84
2018-07-15 05:00,11.44,114.4,18.11,10.41,-4.73,114.40
2018-07-15 06:00,13.49,95.1,17.98,13.44,-1.20,113.67
2018-07-15 07:00,19.36,107.8,17.92,18.43,-5.91,112.94
2018-07-15 08:00,30.80,112.7,17.86,28.41,-11.88,113.09
2018-07-15 09:00,27.28,107.1,17.95,26.08,-8.00,113.23
2018-07-15 11:00,12.03,177.0,17.79,0.62,-12.01,113.38
2018-07-15 12:00,8.21,176.7,17.92,0.48,-8.20,112.65
2018-07-15 13:00,12.32,195.7,18.05,-3.33,-11.86,113.23
2018-07-15 15:00,10.85,217.1,18.08,-6.55,-8.65,114.26
2018-07-15 16:00,15.25,200.6,18.08,-5.36,-14.28,114.84
2018-07-15 17:00,14.66,204.5,18.08,-6.07,-13.35,115.28
2018-07-15 18:00,12.03,174.6,18.05,1.14,-11.97,116.16
2018-07-15 19:00,9.68,152.1,18.01,4.53,-8.55,116.75
2018-07-15 20:00,12.03,179.8,18.01,0.03,-12.03,117.04
2018-07-15 21:00,20.82,126.7,17.54,16.69,-12.46,117.77
2018-07-15 22:00,5.87,98.6,18.27,5.80,-0.88,117.92
2018-07-15 23:00,24.05,302.9,19.10,-20.19,13.06,117.33
2018-07-16 00:00,26.10,309.9,18.81,-20.02,16.76,117.19
2018-07-16 01:00,5.57,287.1,17.92,-5.33,1.64,117.19
2018-07-16 02:00,7.92,261.8,17.95,-7.84,-1.13,116.31
2018-07-16 03:00,10.56,1.2,18.40,0.23,10.56,115.14
2018-07-16 04:00,10.27,65.2,18.52,9.32,4.30,114.99
2018-07-16 05:00,14.66,140.5,18.30,9.34,-11.31,115.43
2018-07-16 06:00,21.70,144.3,18.43,12.66,-17.63,116.02
2018-07-16 07:00,30.50,140.5,18.24,19.42,-23.52,117.04
2018-07-16 08:00,37.84,155.9,17.82,15.43,-34.55,117.19
2018-07-16 09:00,37.25,166.1,18.55,8.93,-36.16,116.60
2018-07-16 10:00,29.92,184.8,17.19,-2.48,-29.81,117.33
2018-07-16 11:00,25.52,233.3,16.40,-20.45,-15.26,117.92
2018-07-16 12:00,28.16,266.0,16.75,-28.09,-1.97,117.04
2018-07-16 13:00,29.04,265.3,17.54,-28.94,-2.39,117.19
2018-07-16 14:00,22.58,268.1,17.76,-22.57,-0.75,116.89
2018-07-16 15:00,15.84,300.4,18.40,-13.66,8.02,116.75
2018-07-16 16:00,20.53,339.1,18.40,-7.32,19.18,116.45
2018-07-16 17:00,14.66,5.1,18.05,1.30,14.61,117.33
2018-07-16 18:00,7.92,45.2,18.17,5.62,5.58,117.33
2018-07-16 19:00,18.18,95.8,18.08,18.09,-1.84,118.21
2018-07-16 20:00,22.00,111.3,18.08,20.50,-7.98,118.65
2018-07-16 21:00,26.40,140.1,16.78,16.93,-20.25,119.68
2018-07-16 22:00,18.48,119.7,18.71,16.05,-9.16,119.24
2018-07-16 23:00,15.84,142.9,18.59,9.55,-12.64,119.24
2018-07-17 00:00,28.45,311.7,18.94,-21.24,18.92,117.92
2018-07-17 01:00,13.79,359.1,19.03,-0.21,13.78,117.92
2018-07-17 02:00,14.96,5.1,19.22,1.33,14.90,117.63
2018-07-17 03:00,12.91,14.6,19.16,3.25,12.49,117.33
2018-07-17 05:00,8.80,106.7,18.90,8.43,-2.53,117.48
2018-07-17 07:00,21.12,122.5,18.75,17.80,-11.36,116.45
2018-07-17 08:00,22.88,139.8,18.11,14.78,-17.46,117.48
2018-07-17 09:00,22.58,140.8,18.05,14.27,-17.50,117.33
2018-07-17 10:00,26.69,149.3,17.95,13.65,-22.94,117.92
2018-07-17 11:00,21.41,184.1,17.73,-1.52,-21.36,117.92
2018-07-17 12:00,19.36,268.8,17.82,-19.35,-0.41,117.48
2018-07-17 13:00,14.66,289.2,17.95,-13.85,4.82,117.77
2018-07-17 14:00,14.08,266.7,18.27,-14.05,-0.81,117.48
2018-07-17 15:00,10.27,279.0,18.55,-10.14,1.60,117.33
2018-07-17 16:00,12.61,326.1,18.84,-7.03,10.47,117.33
2018-07-17 17:00,17.89,330.7,18.87,-8.76,15.60,117.33
2018-07-17 18:00,10.27,24.4,19.22,4.25,9.35,117.04
2018-07-17 19:00,19.94,107.8,18.97,18.99,-6.08,117.48
2018-07-17 20:00,25.81,127.8,18.87,20.39,-15.82,118.07
2018-07-17 21:00,29.33,136.2,18.62,20.28,-21.18,118.65
2018-07-17 22:00,29.33,162.3,18.20,8.94,-27.94,118.80
2018-07-17 23:00,36.08,169.6,17.63,6.48,-35.49,117.92
2018-07-18 00:00,29.33,203.0,17.25,-11.48,-26.99,118.80
2018-07-18 01:00,38.72,237.2,17.35,-32.53,-21.00,117.63
2018-07-18 02:00,36.37,254.4,17.57,-35.03,-9.79,117.48
2018-07-18 03:00,29.92,263.2,17.63,-29.70,-3.56,116.31
2018-07-18 04:00,27.57,248.1,17.38,-25.57,-10.30,112.94
2018-07-18 05:00,26.40,241.7,17.41,-23.25,-12.51,117.48
2018-07-18 06:00,32.85,229.4,17.86,-24.95,-21.37,117.63
2018-07-18 07:00,14.66,208.0,17.73,-6.88,-12.95,116.31
2018-07-18 08:00,10.85,170.3,17.19,1.82,-10.70,113.96
2018-07-18 09:00,22.00,155.2,17.29,9.22,-19.97,112.35
2018-07-18 10:00,25.22,149.3,16.97,12.90,-21.68,114.55
2018-07-18 11:00,30.80,172.5,17.48,4.04,-30.53,114.84
2018-07-18 12:00,48.10,227.7,18.55,-35.55,-32.40,116.02
2018-07-18 13:00,32.26,219.6,19.16,-20.55,-24.87,113.82
2018-07-18 14:00,38.13,232.6,19.22,-30.28,-23.17,114.84
2018-07-18 15:00,37.84,217.5,18.36,-23.01,-30.03,118.80
2018-07-18 16:00,42.53,250.2,19.26,-40.00,-14.43,116.60
2018-07-18 17:00,44.29,247.3,19.58,-40.87,-17.06,116.16
2018-07-18 18:00,41.94,240.7,20.09,-36.56,-20.55,115.28
2018-07-18 19:00,31.97,242.8,20.06,-28.43,-14.62,115.43
2018-07-18 20:00,23.46,245.2,20.06,-21.31,-9.83,116.02
2018-07-18 21:00,24.05,219.2,20.38,-15.21,-18.63,116.16
2018-07-18 22:00,19.65,241.4,20.34,-17.25,-9.42,116.60
2018-07-18 23:00,11.15,223.4,20.31,-7.66,-8.09,116.75
2018-07-19 00:00,8.51,219.6,20.12,-5.42,-6.56,117.48
2018-07-19 01:00,1.76,215.7,19.90,-1.03,-1.43,118.07
2018-07-19 02:00,4.99,253.0,19.83,-4.77,-1.46,117.92
2018-07-19 03:00,7.33,232.6,19.77,-5.82,-4.46,117.77
2018-07-19 04:00,6.16,233.3,19.77,-4.94,-3.68,117.48
2018-07-19 05:00,14.08,180.9,19.74,-0.22,-14.08,117.04
2018-07-19 06:00,25.81,198.5,19.29,-8.18,-24.48,115.28
2018-07-19 07:00,46.05,197.4,19.13,-13.79,-43.94,114.70
2018-07-19 08:00,50.15,202.0,19.22,-18.78,-46.50,114.11
2018-07-19 09:00,36.66,227.0,18.49,-26.79,-25.02,116.02
2018-07-19 10:00,34.02,218.2,18.55,-21.02,-26.75,114.99
2018-07-19 11:00,41.65,218.5,18.71,-25.94,-32.59,114.84
2018-07-19 12:00,36.66,222.0,18.68,-24.55,-27.23,115.72
2018-07-19 13:00,36.66,246.3,19.32,-33.57,-14.74,113.82
2018-07-19 14:00,16.72,260.7,19.13,-16.50,-2.70,114.70
2018-07-19 15:00,35.78,248.8,19.16,-33.35,-12.97,115.28
2018-07-19 16:00,14.37,241.4,18.36,-12.61,-6.89,118.36
2018-07-19 17:00,13.79,244.5,17.76,-12.45,-5.93,119.97
2018-07-19 18:00,16.72,355.3,18.97,-1.38,16.66,118.51
2018-07-19 19:00,15.84,62.8,19.45,14.08,7.25,117.77
2018-07-19 20:00,14.66,108.1,19.83,13.94,-4.56,117.63
2018-07-19 21:00,31.97,145.0,19.54,18.32,-26.20,119.09
2018-07-19 23:00,30.21,173.5,20.06,3.41,-30.02,117.04
2018-07-20 00:00,29.62,165.1,20.06,7.63,-28.62,116.60
2018-07-20 01:00,18.77,200.9,19.93,-6.71,-17.53,116.60
2018-07-20 02:00,14.66,189.7,19.77,-2.47,-14.46,116.02
2018-07-20 03:00,10.85,159.1,19.32,3.87,-10.14,115.43
2018-07-20 04:00,11.44,210.4,19.19,-5.79,-9.86,115.28
2018-07-20 05:00,17.60,218.5,19.16,-10.96,-13.77,114.84
2018-07-20 06:00,12.61,224.5,19.10,-8.84,-9.00,114.70
2018-07-20 07:00,18.18,180.9,18.97,-0.28,-18.18,114.55
2018-07-20 08:00,12.61,171.8,19.00,1.81,-12.48,114.55
2018-07-20 09:00,17.89,170.7,18.94,2.89,-17.66,114.11
2018-07-20 10:00,24.64,167.5,19.00,5.32,-24.06,113.96
2018-07-20 11:00,33.44,167.2,18.84,7.42,-32.60,114.40
2018-07-20 12:00,32.56,169.6,18.90,5.85,-32.03,114.70
2018-07-20 13:00,41.06,175.6,19.13,3.13,-40.94,115.72
2018-07-20 14:00,32.26,198.1,19.03,-10.04,-30.66,116.45
2018-07-20 15:00,28.16,214.3,18.97,-15.87,-23.26,116.16
2018-07-20 16:00,24.64,232.9,19.45,-19.66,-14.85,115.72
2018-07-20 17:00,25.81,235.7,19.58,-21.33,-14.53,115.72
2018-07-20 18:00,,,,,,
2018-07-20 19:00,22.29,262.5,20.12,-22.10,-2.92,115.72
2018-07-20 20:00,12.03,305.0,19.96,-9.85,6.90,116.02
2018-07-20 21:00,8.51,262.5,19.90,-8.43,-1.12,116.16
2018-07-20 22:00,10.85,200.6,19.83,-3.82,-10.16,116.89
2018-07-20 23:00,8.51,168.2,19.86,1.73,-8.33,116.45
2018-07-21 00:00,13.20,146.4,19.74,7.30,-11.00,116.45
2018-07-21 01:00,16.72,178.4,19.45,0.46,-16.71,116.16
2018-07-21 02:00,26.10,242.1,19.00,-23.06,-12.23,117.04
2018-07-21 03:00,10.56,164.0,19.13,2.91,-10.15,116.75
2018-07-21 04:00,5.87,155.2,19.03,2.46,-5.33,116.31
2018-07-21 05:00,11.73,168.9,19.22,2.25,-11.51,116.02
2018-07-21 06:00,10.27,157.7,19.19,3.90,-9.50,115.58
2018-07-21 07:00,10.27,173.2,19.10,1.22,-10.19,115.72
2018-07-21 08:00,8.51,166.1,19.06,2.04,-8.26,115.43
2018-07-21 09:00,19.94,180.9,19.03,-0.31,-19.94,117.63
2018-07-21 10:00,23.46,176.7,19.13,1.36,-23.42,117.63
2018-07-21 11:00,21.70,168.2,19.16,4.42,-21.25,118.07
2018-07-21 12:00,26.69,163.7,19.10,7.51,-25.61,117.92
2018-07-21 13:00,27.28,168.2,18.97,5.56,-26.70,118.07
2018-07-21 14:00,30.50,190.4,18.81,-5.50,-30.00,118.95
2018-07-21 15:00,9.09,221.7,18.71,-6.05,-6.79,118.51
2018-07-21 16:00,12.61,301.1,19.10,-10.79,6.52,117.77
2018-07-21 17:00,10.56,295.5,19.10,-9.53,4.55,117.92
2018-07-21 18:00,13.20,356.7,19.70,-0.77,13.18,117.48
2018-07-21 19:00,15.25,351.4,19.86,-2.28,15.08,117.77
2018-07-21 20:00,21.70,11.8,20.18,4.43,21.25,117.77
2018-07-21 21:00,14.66,67.0,19.99,13.50,5.74,118.51
2018-07-21 22:00,19.06,113.7,19.51,17.45,-7.68,118.36
2018-07-21 23:00,12.91,136.9,19.77,8.81,-9.43,118.36
2018-07-22 00:00,19.06,146.8,19.51,10.44,-15.95,118.51
2018-07-22 01:00,21.70,170.3,18.90,3.64,-21.40,117.63
2018-07-22 02:00,25.22,214.6,19.03,-14.34,-20.75,117.33
2018-07-22 03:00,13.49,252.6,19.64,-12.88,-4.03,116.45
2018-07-22 04:00,18.77,289.2,19.70,-17.73,6.17,116.02
2018-07-22 05:00,15.54,305.7,19.83,-12.62,9.07,115.72
2018-07-22 06:00,8.51,329.6,19.86,-4.30,7.34,115.28
2018-07-22 07:00,9.68,330.3,19.83,-4.79,8.41,114.84
2018-07-22 08:00,14.08,324.0,19.90,-8.28,11.39,114.84
2018-07-22 09:00,5.28,347.2,19.80,-1.17,5.15,114.70
2018-07-22 10:00,4.69,256.5,19.77,-4.56,-1.10,114.55
2018-07-22 11:00,12.91,248.8,19.77,-12.03,-4.68,114.40
2018-07-22 12:00,14.08,277.2,19.90,-13.97,1.77,114.40
2018-07-22 13:00,8.80,311.3,19.77,-6.61,5.81,114.99
2018-07-22 14:00,14.37,283.6,19.77,-13.97,3.37,115.28
2018-07-22 15:00,25.81,306.1,19.77,-20.86,15.19,115.87
2018-07-22 16:00,26.69,342.3,19.83,-8.12,25.42,116.16
2018-07-22 17:00,,,,,,
2018-07-22 18:00,30.21,8.3,19.70,4.34,29.90,116.60
2018-07-22 19:00,19.65,29.0,19.67,9.53,17.19,116.45
2018-07-22 20:00,16.13,69.8,19.51,15.14,5.57,116.16
2018-07-22 21:00,15.25,109.9,19.38,14.34,-5.18,116.60
2018-07-22 22:00,8.80,135.9,19.32,6.12,-6.32,117.04
2018-07-22 23:00,27.28,163.3,19.35,7.83,-26.13,117.48
2018-07-23 00:00,22.58,168.9,19.29,4.33,-22.16,117.48
2018-07-23 01:00,20.24,182.0,19.32,-0.69,-20.23,117.04
2018-07-23 02:00,16.42,190.7,19.19,-3.06,-16.14,116.45
2018-07-23 03:00,13.79,235.7,19.19,-11.39,-7.76,115.87
2018-07-23 04:00,22.00,275.5,19.19,-21.90,2.10,115.72
2018-07-23 05:00,19.36,312.7,19.29,-14.22,13.14,115.58
2018-07-23 06:00,21.41,345.1,19.38,-5.52,20.69,115.87
2018-07-23 07:00,19.36,340.9,19.48,-6.34,18.29,115.58
2018-07-23 08:00,20.82,1.9,19.51,0.70,20.81,115.58
2018-07-23 09:00,24.93,9.7,19.51,4.19,24.58,115.14
2018-07-23 10:00,20.53,31.1,19.51,10.61,17.58,114.84
2018-07-23 11:00,,,,,,
2018-07-23 13:00,18.48,119.4,19.29,16.10,-9.06,115.14
2018-07-23 14:00,19.36,133.4,19.19,14.06,-13.31,115.58
2018-07-23 15:00,,,,,,
2018-07-23 16:00,17.01,146.1,19.03,9.49,-14.12,115.43
2018-07-23 17:00,6.75,191.1,18.94,-1.30,-6.62,115.14
2018-07-23 18:00,17.89,260.4,19.06,-17.64,-3.00,115.43
2018-07-23 19:00,14.96,298.3,19.26,-13.17,7.10,116.02
2018-07-23 20:00,16.42,307.5,19.51,-13.04,9.99,116.16
2018-07-23 21:00,20.53,301.8,19.67,-17.44,10.83,116.45
2018-07-23 22:00,16.42,310.3,19.77,-12.53,10.62,116.75
2018-07-23 23:00,16.72,337.0,19.83,-6.53,15.39,116.75
2018-07-24 00:00,7.33,353.8,19.83,-0.79,7.29,116.75
2018-07-24 01:00,9.68,26.9,19.80,4.38,8.63,116.45
2018-07-24 02:00,9.39,47.3,19.70,6.90,6.37,116.45
2018-07-24 03:00,11.44,92.6,19.61,11.43,-0.53,116.02
2018-07-24 04:00,17.01,109.2,19.51,16.07,-5.59,115.87
2018-07-24 05:00,21.12,115.5,19.32,19.06,-9.09,115.58
2018-07-24 06:00,18.48,126.0,19.38,14.94,-10.87,114.55
2018-07-24 07:00,13.20,165.4,19.29,3.32,-12.77,114.55
2018-07-24 08:00,14.66,197.4,19.22,-4.39,-13.99,114.55
2018-07-24 09:00,16.72,230.8,19.22,-12.96,-10.56,114.26
2018-07-24 10:00,18.77,245.2,19.19,-17.05,-7.86,113.96
2018-07-24 11:00,13.79,259.7,19.35,-13.56,-2.48,113.53
2018-07-24 12:00,10.56,272.3,19.29,-10.55,0.43,114.26
2018-07-24 13:00,12.03,293.8,19.45,-11.01,4.84,114.40
2018-07-24 14:00,12.03,317.3,19.67,-8.15,8.84,114.84
2018-07-24 15:00,13.49,350.3,19.80,-2.27,13.30,114.99
2018-07-24 16:00,17.89,344.4,20.18,-4.83,17.23,115.28
2018-07-24 17:00,10.85,16.3,20.31,3.05,10.41,115.58
2018-07-24 18:00,15.54,10.7,20.44,2.89,15.27,115.72
2018-07-24 19:00,17.01,358.4,20.47,-0.47,17.00,116.02
2018-07-24 20:00,15.25,354.9,20.57,-1.36,15.19,116.02
2018-07-24 21:00,17.89,346.5,20.54,-4.19,17.39,115.87
2018-07-24 22:00,15.54,19.9,20.47,5.28,14.62,116.02
2018-07-24 23:00,16.42,16.0,20.44,4.53,15.79,116.16
2018-07-25 00:00,8.21,44.5,20.34,5.75,5.86,116.02
2018-07-25 01:00,8.21,81.0,20.18,8.11,1.28,115.87
2018-07-25 02:00,12.03,92.3,19.93,12.02,-0.48,115.72
2018-07-25 03:00,15.54,102.8,19.93,15.16,-3.45,115.43
2018-07-25 04:00,15.84,140.8,19.58,10.01,-12.28,115.43
2018-07-25 05:00,14.66,126.4,19.45,11.80,-8.70,115.43
2018-07-25 06:00,11.15,122.5,19.19,9.40,-5.99,115.28
2018-07-25 07:00,5.87,121.1,19.51,5.02,-3.03,114.70
2018-07-25 08:00,5.87,247.0,19.51,-5.40,-2.29,114.55
2018-07-25 09:00,8.80,294.8,19.42,-7.99,3.69,114.55
2018-07-25 10:00,11.15,266.3,19.42,-11.12,-0.71,114.11
2018-07-25 11:00,19.06,288.8,19.42,-18.04,6.16,114.26
2018-07-25 12:00,19.65,309.6,19.67,-15.15,12.52,114.11
2018-07-25 13:00,16.72,341.9,20.02,-5.19,15.89,113.67
2018-07-25 14:00,16.42,0.2,20.28,0.05,16.42,113.96
2018-07-25 15:00,21.12,25.1,20.41,8.97,19.12,114.26
2018-07-25 16:00,22.29,34.3,20.44,12.55,18.42,114.70
2018-07-25 17:00,21.70,33.2,20.51,11.89,18.16,114.99
2018-07-25 18:00,23.76,40.3,20.47,15.35,18.13,115.28
2018-07-25 19:00,25.52,29.0,20.38,12.37,22.32,115.58
2018-07-25 20:00,15.84,326.1,19.96,-8.83,13.15,116.89
2018-07-25 21:00,19.36,0.9,20.12,0.30,19.36,116.89
2018-07-25 22:00,14.96,0.5,20.12,0.14,14.96,117.04
2018-07-25 23:00,12.91,35.3,20.09,7.46,10.53,116.89
2018-07-26 00:00,3.81,12.8,19.90,0.85,3.72,117.04
2018-07-26 01:00,4.11,144.7,19.70,2.37,-3.35,116.89
2018-07-26 02:00,4.11,94.8,19.61,4.09,-0.34,116.45
2018-07-26 03:00,5.87,97.2,19.51,5.82,-0.74,116.02
2018-07-26 04:00,8.21,61.7,19.35,7.23,3.89,116.02
2018-07-26 05:00,14.37,53.3,19.19,11.52,8.60,115.72
2018-07-26 07:00,19.06,36.7,19.32,11.40,15.28,114.99
2018-07-26 08:00,21.12,13.9,19.42,5.07,20.50,114.70
2018-07-26 09:00,24.34,355.6,19.51,-1.87,24.27,114.55
2018-07-26 10:00,22.29,348.6,19.54,-4.42,21.85,114.55
2018-07-26 11:00,30.50,0.2,19.74,0.09,30.50,113.96
2018-07-26 12:00,23.17,1.6,19.80,0.64,23.16,114.11
2018-07-26 13:00,14.37,44.5,19.90,10.07,10.25,114.26
2018-07-26 14:00,12.03,56.4,19.86,10.02,6.65,114.84
2018-07-26 16:00,22.29,95.1,19.58,22.20,-1.98,116.02
2018-07-26 17:00,26.40,116.6,19.32,23.61,-11.80,116.31
2018-07-26 18:00,29.04,142.6,18.71,17.65,-23.06,116.75
2018-07-26 19:00,21.12,138.4,18.81,14.03,-15.78,118.36
2018-07-26 20:00,15.84,136.6,19.80,10.88,-11.51,118.51
2018-07-26 21:00,9.39,197.8,19.86,-2.86,-8.94,118.36
2018-07-26 22:00,13.79,254.4,19.83,-13.28,-3.71,118.36
2018-07-26 23:00,13.49,249.1,19.74,-12.60,-4.81,118.21
2018-07-27 00:00,9.39,253.3,19.74,-8.99,-2.69,118.07
2018-07-27 01:00,7.63,170.7,19.74,1.23,-7.53,117.63
2018-07-27 02:00,9.68,229.4,19.58,-7.35,-6.30,117.48
2018-07-27 03:00,6.45,150.3,19.64,3.20,-5.61,117.19
2018-07-27 04:00,4.11,135.9,19.58,2.86,-2.95,117.04
2018-07-27 05:00,9.68,102.5,19.58,9.45,-2.09,117.04
2018-07-27 06:00,14.66,92.6,19.61,14.65,-0.68,116.75
2018-07-27 08:00,19.36,97.9,19.67,19.17,-2.67,116.16
2018-07-27 09:00,14.66,126.0,19.70,11.86,-8.63,116.02
2018-07-27 10:00,7.63,145.0,19.67,4.37,-6.25,116.02
2018-07-27 11:00,7.92,235.0,19.67,-6.49,-4.54,116.02
2018-07-27 12:00,9.09,229.8,19.58,-6.94,-5.87,116.45
2018-07-27 13:00,6.45,227.3,19.61,-4.74,-4.38,116.89
2018-07-27 14:00,6.45,242.1,19.67,-5.70,-3.02,117.48
2018-07-27 15:00,9.39,194.3,19.61,-2.31,-9.10,118.21
2018-07-27 16:00,6.75,128.5,19.83,5.28,-4.20,118.65
2018-07-27 17:00,6.75,103.9,20.15,6.55,-1.62,119.24
2018-07-27 18:00,12.32,32.2,20.47,6.56,10.43,119.38
2018-07-27 19:00,9.68,51.9,20.47,7.61,5.98,119.82
2018-07-27 20:00,22.58,30.8,20.38,11.55,19.41,119.97
2018-07-27 21:00,19.94,18.8,20.47,6.43,18.88,118.95
2018-07-27 22:00,19.94,19.5,20.51,6.66,18.80,118.80
2018-07-27 23:00,14.37,0.5,20.54,0.13,14.37,118.95
2018-07-28 00:00,18.48,31.8,20.47,9.74,15.70,118.65
2018-07-28 01:00,13.79,68.0,20.28,12.78,5.16,118.65
2018-07-28 02:00,15.84,96.5,20.18,15.74,-1.80,118.95
2018-07-28 03:00,16.42,133.1,20.09,12.00,-11.22,119.09
2018-07-28 04:00,20.24,145.0,20.12,11.60,-16.58,118.95
2018-07-28 05:00,21.41,147.8,19.83,11.39,-18.13,120.12
2018-07-28 06:00,17.89,152.8,18.97,8.19,-15.91,120.26
2018-07-28 07:00,18.18,157.0,18.43,7.11,-16.74,120.41
2018-07-28 08:00,17.89,147.1,18.97,9.71,-15.03,120.85
2018-07-28 09:00,11.73,178.1,19.29,0.39,-11.73,121.29
2018-07-28 10:00,10.85,182.7,19.38,-0.50,-10.84,122.02
2018-07-28 11:00,17.89,276.9,19.26,-17.76,2.14,121.73
2018-07-28 12:00,23.76,297.6,19.35,-21.05,11.02,119.53
2018-07-28 13:00,13.49,299.0,19.32,-11.80,6.55,119.68
2018-07-28 14:00,30.21,352.8,19.67,-3.79,29.97,119.68
2018-07-28 15:00,19.65,20.2,19.99,6.79,18.44,120.12
2018-07-28 16:00,17.60,63.8,20.18,15.79,7.77,119.97
2018-07-28 17:00,27.28,84.9,20.22,27.17,2.42,120.56
2018-07-28 18:00,29.62,109.9,20.28,27.86,-10.07,121.00
2018-07-28 19:00,32.85,118.0,20.34,29.02,-15.40,121.14
2018-07-28 20:00,30.21,119.0,19.96,26.42,-14.65,122.75
2018-07-28 21:00,25.22,111.3,20.96,23.50,-9.15,121.58
2018-07-28 22:00,18.18,90.5,20.34,18.18,-0.17,122.02
2018-07-29 00:00,6.75,7.9,20.25,0.93,6.68,121.44
2018-07-29 01:00,14.66,47.6,20.44,10.84,9.88,120.56
2018-07-29 02:00,19.06,68.0,20.63,17.68,7.13,120.26
2018-07-29 03:00,21.70,95.5,20.28,21.61,-2.06,121.14
2018-07-29 04:00,20.24,124.6,19.80,16.65,-11.50,123.05
2018-07-29 05:00,21.41,125.7,19.51,17.39,-12.49,123.19
2018-07-29 06:00,26.10,140.1,19.29,16.74,-20.03,123.34
2018-07-29 07:00,25.22,145.0,18.90,14.46,-20.67,123.34
2018-07-29 08:00,18.18,157.0,19.16,7.11,-16.74,122.75
2018-07-29 09:00,22.00,172.5,19.03,2.89,-21.81,123.19
2018-07-29 10:00,14.08,177.7,19.06,0.56,-14.07,122.31
2018-07-29 11:00,11.73,181.6,18.81,-0.33,-11.73,122.61